User: anonymous   Login
Location: *
(17.3280°S, 114.7300°W)
Time: 09:47:07
(UTC+00:00)
Language:

Cosmos 1709 Rocket - Orbit

View from above orbital plane
View from above orbital plane
View from above satellite
View from above satellite

Ground track
Ground track

The orbit data is extracted from the following two-line orbital elements,

1 16369U 85116B   20293.87375587 +.00000088 +00000-0 +73521-4 0  9990
2 16369 082.9380 160.4018 0036197 344.6502 025.6140 13.76866630749955
Epoch (UTC): 19 October 2020 20:58:12
Eccentricity: 0.0036197
inclination: 82.9380°
perigee height: 948 km
apogee height: 1001 km
right ascension of ascending node: 160.4018°
argument of perigee: 344.6502°
revolutions per day: 13.76866630
mean anomaly at epoch: 25.6140°
orbit number at epoch: 74995

The dashed part of the orbit path shows where the satellite is in the earth's shadow,  

DLR